Weather History for KDLH - December, 2013

Change the Weather History Date:

Monday, December 9, 2013

  Actual Average Record
Temperature  
Mean Temperature -2 °F 17 °F  
Max Temperature 5 °F 24 °F 54 °F (1939)
Min Temperature -9 °F 10 °F -30 °F (1876)
Degree Days  
Heating Degree Days 67 48  
Month to date heating degree days 487 419  
Since 1 July heating degree days 2444 2632  
Cooling Degree Days 0 0  
Month to date cooling degree days 0 0  
Year to date cooling degree days 375 204  
Moisture  
Dew Point -9 °F    
Average Humidity 72    
Maximum Humidity 87    
Minimum Humidity 56    
Precipitation  
Precipitation 0.02 in 0.04 in 1.03 in (1879)
Month to date precipitation 2.19 0.40  
Year to date precipitation 29.79 30.15  
Snow  
Snow 0.10 in 0.60 in 7.10 in (1961)
Month to date snowfall 24.2 4.9  
Since 1 July snowfall 29.2 21.0  
Snow Depth 17.00 in    
Sea Level Pressure  
Sea Level Pressure 29.93 in    
Wind  
Wind Speed 12 mph (West)    
Max Wind Speed 25 mph    
Max Gust Speed 32 mph    
Visibility 6 miles    
Events Snow    
T = Trace of Precipitation, MM = Missing Value Source: NWS Daily Summary

Daily Weather History Graph

Daily Weather History Graph

Search for Another Location

Airport or City:

Trip Planner

Search our weather history database for the weather conditions in past years. The results will help you decide how hot, cold, wet, or windy it might be!

Date:

Astronomy

Dec. 09, 2013 Rise Set
Actual Time 7:42 AM CST 4:20 PM CST
Civil Twilight 7:07 AM CST 4:55 PM CST
Nautical Twilight 6:28 AM CST 5:33 PM CST
Astronomical Twilight 5:51 AM CST 6:10 PM CST
Moon 12:13 PM CST (12/9) No Moon Set
Length of Visible Light 9h 48m
Length of Day
8h 37m
Waxing Crescent, 51% of the Moon is Illuminated
Dec 9
Waxing Crescent
Dec 17
Full
Dec 25
Last Quarter
Jan 1
New
Jan 7
First Quarter

Hourly Weather History & Observations

Time (CST) Temp. Windchill Dew Point Humidity Pressure Visibility Wind Dir Wind Speed Gust Speed Precip Events Conditions
12:04 AM 3.2 °F -7.8 °F -0.4 °F 85% 29.93 in 3.0 mi West 5.8 mph - 0.00 in Snow Light Snow
12:26 AM 3.2 °F -9.1 °F -0.4 °F 85% 29.91 in 1.8 mi West 6.9 mph - 0.01 in Snow Light Snow
12:45 AM 3.2 °F -13.1 °F -0.4 °F 85% 29.90 in 3.0 mi West 11.5 mph - 0.01 in Snow Light Snow
12:55 AM 3.9 °F -12.2 °F -0.9 °F 80% 30.01 in 8.0 mi West 11.5 mph - 0.01 in Snow Light Snow
1:12 AM 5.0 °F -11.6 °F -0.4 °F 78% 29.89 in 1.8 mi West 12.7 mph - 0.00 in Snow Light Snow
1:44 AM 5.0 °F -9.1 °F -0.4 °F 78% 29.88 in 2.5 mi West 9.2 mph - 0.00 in Snow Light Snow
1:55 AM 5.0 °F -10.8 °F -0.0 °F 80% 29.99 in 1.5 mi West 11.5 mph - 0.00 in Snow Light Snow
2:13 AM 5.0 °F -6.9 °F -0.4 °F 78% 29.87 in 2.5 mi West 6.9 mph - 0.00 in Snow Light Snow
2:24 AM 5.0 °F -6.9 °F -0.4 °F 78% 29.87 in 3.0 mi West 6.9 mph - 0.01 in Snow Light Snow
2:55 AM 3.0 °F -11.5 °F -2.0 °F 80% 29.98 in 4.0 mi West 9.2 mph - 0.01 in Snow Light Snow
3:19 AM 1.4 °F -13.5 °F -2.2 °F 85% 29.85 in 2.5 mi West 9.2 mph - 0.00 in Snow Light Snow
3:34 AM 3.2 °F -12.2 °F -2.2 °F 78% 29.84 in 5.0 mi West 10.4 mph - 0.00 in Snow Light Snow
3:55 AM 1.9 °F -12.9 °F -2.9 °F 80% 29.95 in 6.0 mi West 9.2 mph - 0.00 in Snow Light Snow
4:55 AM -0.9 °F -16.4 °F -5.1 °F 83% 29.93 in 6.0 mi West 9.2 mph - 0.00 in Snow Light Snow
5:55 AM -5.1 °F -20.4 °F -9.0 °F 83% 29.91 in 6.0 mi West 8.1 mph - 0.00 in   Partly Cloudy
6:55 AM -5.1 °F -20.4 °F -9.0 °F 83% 29.90 in 6.0 mi West 8.1 mph - N/A   Mostly Cloudy
7:55 AM -2.0 °F -19.6 °F -8.0 °F 76% 29.90 in 3.0 mi West 11.5 mph - 0.00 in Snow Light Snow
8:55 AM -2.9 °F -23.1 °F -9.0 °F 75% 29.92 in 10.0 mi West 15.0 mph - 0.00 in   Scattered Clouds
9:55 AM -2.9 °F -23.1 °F -9.9 °F 72% 29.92 in 10.0 mi WNW 15.0 mph 25.3 mph N/A   Scattered Clouds
10:55 AM -4.0 °F -27.0 °F -11.9 °F 69% 29.94 in 2.5 mi West 19.6 mph 28.8 mph N/A Snow Blowing Snow
11:10 AM -4.0 °F -27.6 °F -11.2 °F 71% 29.81 in 3.0 mi WNW 20.7 mph 27.6 mph N/A Snow Blowing Snow
11:55 AM -2.9 °F -25.6 °F -13.0 °F 62% 29.94 in 3.0 mi WNW 19.6 mph 31.1 mph N/A   Scattered Clouds
12:48 PM -2.2 °F -25.7 °F -11.2 °F 66% 29.82 in 2.5 mi West 21.9 mph 27.6 mph 0.00 in Snow Blowing Snow
12:55 PM -2.9 °F -24.4 °F -13.0 °F 62% 29.95 in 2.5 mi West 17.3 mph 26.5 mph 0.00 in Snow Blowing Snow
1:18 PM -2.2 °F -23.5 °F -14.8 °F 55% 29.83 in 3.0 mi West 17.3 mph 28.8 mph N/A Snow Blowing Snow
1:55 PM -2.9 °F -23.8 °F -14.1 °F 59% 29.95 in 7.0 mi West 16.1 mph 32.2 mph N/A   Scattered Clouds
2:55 PM -2.9 °F -24.4 °F -14.1 °F 59% 29.96 in 10.0 mi West 17.3 mph - N/A   Partly Cloudy
3:55 PM -4.0 °F -25.2 °F -14.1 °F 62% 29.99 in 10.0 mi West 16.1 mph - N/A   Partly Cloudy
4:55 PM -5.1 °F -23.5 °F -14.1 °F 65% 30.03 in 10.0 mi WSW 11.5 mph - N/A   Partly Cloudy
5:55 PM -6.0 °F -22.6 °F -14.1 °F 68% 30.03 in 10.0 mi WSW 9.2 mph - N/A   Partly Cloudy
6:55 PM -7.1 °F -25.9 °F -14.1 °F 72% 30.02 in 10.0 mi WSW 11.5 mph - N/A   Clear
7:55 PM -8.0 °F -27.1 °F -15.0 °F 71% 30.02 in 10.0 mi WSW 11.5 mph - N/A   Clear
8:55 PM -8.0 °F -25.0 °F -15.0 °F 71% 30.00 in 10.0 mi WSW 9.2 mph - N/A   Partly Cloudy
9:55 PM -9.0 °F -23.8 °F -15.0 °F 75% 29.98 in 10.0 mi SSW 6.9 mph - N/A   Mostly Cloudy
10:55 PM -9.0 °F -22.3 °F -15.0 °F 75% 29.98 in 10.0 mi SW 5.8 mph - N/A   Mostly Cloudy
11:55 PM -9.0 °F -20.4 °F -14.1 °F 79% 29.95 in 10.0 mi SSW 4.6 mph - N/A   Overcast